Weather History for Kirksville, MO

Change the Weather History Date:

Monday, August 5, 2013

  Actual Average Record
Temperature  
Mean Temperature 75 °F 75 °F  
Max Temperature 86 °F 86 °F 104 °F (1918)
Min Temperature 64 °F 65 °F 46 °F (1957)
Degree Days  
Heating Degree Days 0 0  
Month to date heating degree days 0 0  
Since 1 June heating degree days 44 17  
Since 1 July heating degree days 8 1  
Cooling Degree Days 10 10  
Month to date cooling degree days 39 51  
Year to date cooling degree days 571 618  
Since 1 June cooling degree days 503 556  
Growing Degree Days 25 (Base 50)    
Moisture  
Dew Point 67 °F    
Average Humidity 77    
Maximum Humidity 93    
Minimum Humidity 61    
Precipitation  
Precipitation 0.00 in 0.11 in 1.96 in (1924)
Month to date precipitation 0.00 0.55  
Year to date precipitation 29.89 24.14  
Sea Level Pressure  
Sea Level Pressure 29.96 in    
Wind  
Wind Speed 6 mph (South)    
Max Wind Speed 13 mph    
Max Gust Speed 17 mph    
Visibility 10 miles    
Events      
T = Trace of Precipitation, MM = Missing Value Source: NWS Daily Summary

Daily Weather History Graph

Daily Weather History Graph

Search for Another Location

Airport:

Trip Planner

Search our weather history database for the weather conditions in past years. The results will help you decide how hot, cold, wet, or windy it might be!

Date:

Astronomy

Aug. 05, 2013 Rise Set
Actual Time 6:12 AM CDT 8:19 PM CDT
Civil Twilight 5:42 AM CDT 8:49 PM CDT
Nautical Twilight 5:05 AM CDT 9:25 PM CDT
Astronomical Twilight 4:25 AM CDT 10:05 PM CDT
Moon 5:07 AM CDT (8/5) 7:19 PM CDT (8/5)
Length of Visible Light 15h 06m
Length of Day
14h 06m
Waning Crescent, 1% of the Moon is Illuminated
Aug 5
Waning Crescent
Aug 6
New
Aug 14
First Quarter
Aug 20
Full
Aug 28
Last Quarter

Hourly Weather History & Observations

Time (CDT) Temp. Heat Index Dew Point Humidity Pressure Visibility Wind Dir Wind Speed Gust Speed Precip Events Conditions
12:55 AM 70.0 °F - 62.1 °F 76% 30.07 in 10.0 mi SSE 6.9 mph - N/A   Overcast
1:55 AM 66.9 °F - 61.0 °F 81% 30.06 in 10.0 mi SSE 6.9 mph - N/A   Mostly Cloudy
2:55 AM 64.0 °F - 61.0 °F 90% 30.04 in 10.0 mi South 4.6 mph - N/A   Partly Cloudy
3:55 AM 66.9 °F - 62.1 °F 84% 30.02 in 10.0 mi SSE 6.9 mph - N/A   Overcast
4:55 AM 64.9 °F - 62.1 °F 90% 30.01 in 10.0 mi South 4.6 mph - N/A   Partly Cloudy
5:55 AM 64.9 °F - 63.0 °F 93% 30.01 in 10.0 mi South 5.8 mph - N/A   Overcast
6:02 AM 64.4 °F - 62.6 °F 94% 30.01 in 10.0 mi South 5.8 mph - N/A   Overcast
6:14 AM 64.4 °F - 62.6 °F 94% 30.01 in 10.0 mi South 6.9 mph - N/A   Overcast
6:53 AM 66.2 °F - 62.6 °F 88% 30.01 in 10.0 mi SSE 3.5 mph - N/A   Mostly Cloudy
6:55 AM 66.0 °F - 63.0 °F 90% 30.00 in 10.0 mi SSE 4.6 mph - N/A   Mostly Cloudy
7:45 AM 69.8 °F - 64.4 °F 83% 30.00 in 10.0 mi South 5.8 mph - N/A   Overcast
7:55 AM 69.1 °F - 64.9 °F 87% 29.99 in 10.0 mi South 8.1 mph - N/A   Overcast
8:25 AM 69.8 °F - 66.2 °F 88% 30.00 in 10.0 mi SSW 8.1 mph - N/A   Overcast
8:55 AM 72.0 °F - 66.9 °F 84% 29.99 in 10.0 mi SSW 8.1 mph - N/A   Overcast
9:55 AM 75.0 °F - 68.0 °F 79% 29.97 in 10.0 mi SSW 6.9 mph - N/A   Overcast
10:55 AM 78.1 °F - 69.1 °F 74% 29.96 in 10.0 mi South 8.1 mph - N/A   Overcast
11:24 AM 77.0 °F - 68.0 °F 74% 29.98 in 10.0 mi SSW 5.8 mph - N/A   Overcast
11:55 AM 79.0 °F - 69.1 °F 72% 29.97 in 10.0 mi WSW 5.8 mph - N/A   Overcast
12:55 PM 81.0 °F 84.1 °F 69.1 °F 67% 29.97 in 10.0 mi Variable 3.5 mph - N/A   Overcast
1:03 PM 80.6 °F 83.9 °F 69.8 °F 70% 29.98 in 10.0 mi Calm Calm - N/A   Overcast
1:55 PM 81.0 °F 84.4 °F 70.0 °F 69% 29.95 in 10.0 mi West 3.5 mph - N/A   Overcast
2:32 PM 82.4 °F 86.3 °F 69.8 °F 66% 29.95 in 10.0 mi West 3.5 mph - N/A   Overcast
2:55 PM 81.0 °F 84.9 °F 71.1 °F 72% 29.93 in 10.0 mi SW 4.6 mph - N/A   Overcast
3:55 PM 84.9 °F 90.1 °F 71.1 °F 63% 29.88 in 10.0 mi South 5.8 mph - N/A   Partly Cloudy
4:55 PM 86.0 °F 91.5 °F 71.1 °F 61% 29.85 in 10.0 mi South 12.7 mph - N/A   Partly Cloudy
5:55 PM 84.0 °F 88.4 °F 70.0 °F 63% 29.84 in 10.0 mi SSW 9.2 mph - N/A   Scattered Clouds
6:55 PM 84.0 °F 88.4 °F 70.0 °F 63% 29.87 in 10.0 mi WSW 4.6 mph - N/A   Mostly Cloudy
7:55 PM 77.0 °F - 71.1 °F 82% 29.88 in 10.0 mi Calm Calm - N/A   Partly Cloudy
8:55 PM 73.9 °F - 71.1 °F 91% 29.89 in 8.0 mi SE 3.5 mph - N/A   Clear
9:55 PM 72.0 °F - 70.0 °F 93% 29.89 in 6.0 mi SSE 3.5 mph - N/A   Clear
10:55 PM 71.1 °F - 70.0 °F 96% 29.88 in 5.0 mi South 4.6 mph - N/A   Clear
11:55 PM 71.1 °F - 69.1 °F 93% 29.89 in 4.0 mi SSE 5.8 mph - N/A   Clear